FW3731 Weather Reports


Display with metric or nautical units.
time (UTC)temp
F
wind
direction
speed
MPH
gust
MPH
rain 1hr
in
rain 24hr
in
rain mn
in
humidity
%
barometer
mb
20260509234514 81 226 0.0 1.0 0.00 0.46 0.01 46 1008.5
20260509233007 82 226 0.0 2.0 0.00 0.46 0.01 43 1008.4
20260509231512 83 233 0.0 3.0 0.00 0.46 0.01 43 1008.5
20260509230007 84 243 0.0 4.0 0.00 0.46 0.01 42 1008.5
20260509224506 84 233 1.0 5.0 0.00 0.51 0.01 41 1008.4
20260509223007 84 233 0.0 3.0 0.00 0.51 0.01 38 1008.4
20260509221505 85 264 0.0 5.0 0.00 0.51 0.01 38 1008.3
20260509220013 85 155 2.0 7.0 0.00 0.51 0.01 37 1008.3
20260509214504 85 309 0.0 2.0 0.00 0.55 0.01 39 1008.4
20260509213002 85 224 0.0 3.0 0.00 0.55 0.01 41 1008.5
20260509211600 85 186 0.0 8.0 0.00 0.55 0.01 39 1008.6
20260509210106 85 159 1.0 6.0 0.00 0.55 0.01 41 1008.9
20260509204556 85 225 0.0 4.0 0.00 0.55 0.01 42 1009.1
20260509203054 85 244 0.0 2.0 0.00 0.55 0.01 41 1009.3
20260509201551 84 70 0.0 4.0 0.00 0.55 0.01 42 1009.3
20260509200050 84 335 0.0 6.0 0.00 0.55 0.01 41 1009.5
20260509194547 83 180 0.0 7.0 0.00 0.55 0.01 42 1009.6
20260509193045 83 255 0.0 3.0 0.00 0.55 0.01 44 1009.7
20260509191542 83 264 0.0 4.0 0.00 0.55 0.01 46 1009.7
20260509190040 82 263 0.0 7.0 0.00 0.55 0.01 50 1009.8
20260509184550 82 199 0.0 3.0 0.00 0.55 0.01 50 1009.8
20260509183033 80 228 0.0 8.0 0.00 0.55 0.01 53 1009.9
20260509181533 80 152 1.0 5.0 0.00 0.55 0.01 51 1010.1
20260509180030 80 349 0.0 6.0 0.00 0.55 0.01 53 1010.2
20260509174511 80 360 0.0 7.0 0.00 0.55 0.01 50 1010.3
20260509173008 80 203 0.0 9.0 0.00 0.55 0.01 51 1010.4
20260509171505 80 238 0.0 3.0 0.00 0.55 0.01 57 1010.6
20260509170007 80 253 0.0 3.0 0.00 0.55 0.01 54 1010.8
20260509164604 79 262 0.0 7.0 0.00 0.55 0.01 59 1011.0
20260509163056 78 228 0.0 5.0 0.00 0.55 0.01 61 1011.0
20260509161553 77 123 0.0 3.0 0.00 0.55 0.01 64 1011.0
20260509160049 76 91 0.0 5.0 0.00 0.55 0.01 68 1011.1
20260509154547 75 324 0.0 3.0 0.00 0.55 0.01 73 1011.0
20260509153055 74 215 0.0 3.0 0.00 0.55 0.01 78 1011.0
20260509151537 71 229 0.0 4.0 0.00 0.55 0.01 89 1010.9
20260509150034 69 191 0.0 4.0 0.00 0.55 0.01 94 1010.8
20260509144533 69 141 0.0 2.0 0.00 0.55 0.01 97 1010.8
20260509143030 67 150 0.0 1.0 0.00 0.55 0.01 95 1010.9
20260509141525 66 236 0.0 2.0 0.00 0.55 0.01 96 1011.0
20260509140022 67 91 0.0 1.0 0.00 0.55 0.01 96 1010.9
20260509134519 65 90 0.0 1.0 0.00 0.55 0.01 98 1010.8
20260509133016 62 239 0.0 3.0 0.00 0.55 0.01 96 1010.8
20260509131514 61 239 0.0 4.0 0.00 0.55 0.01 97 1010.8
20260509130011 59 214 0.0 2.0 0.00 0.55 0.01 96 1010.7
20260509124507 57 241 0.0 1.0 0.00 0.55 0.01 97 1010.8
20260509123011 56 233 0.0 1.0 0.00 0.55 0.01 98 1010.6
20260509121505 55 240 0.0 2.0 0.00 0.55 0.01 98 1010.3
20260509120004 54 248 0.0 3.0 0.00 0.55 0.01 97 1010.4
20260509114504 54 224 0.0 2.0 0.00 0.55 0.01 97 1010.1
20260509113002 54 210 0.0 1.0 0.00 0.55 0.01 97 1010.0
20260509111600 54 249 0.0 1.0 0.00 0.55 0.01 97 1010.0
20260509104559 55 248 0.0 0.0 0.01 0.55 0.01 97 1010.0
20260509103103 55 248 0.0 1.0 0.01 0.55 0.01 97 1010.2
20260509101601 55 230 0.0 1.0 0.01 0.55 0.01 97 1010.2
20260509100056 55 271 0.0 1.0 0.00 0.54 0.00 97 1010.3
20260509094555 55 238 0.0 3.0 0.00 0.54 0.00 97 1010.3
20260509093055 56 238 0.0 1.0 0.00 0.54 0.00 97 1010.3
20260509091614 56 294 0.0 0.0 0.00 0.54 0.00 97 1010.1
20260509090050 56 231 0.0 2.0 0.00 0.54 0.00 97 1010.0
20260509084550 56 236 0.0 2.0 0.00 0.54 0.00 97 1009.9
20260509083052 56 203 0.0 3.0 0.00 0.54 0.00 97 1010.0
20260509081548 56 214 0.0 1.0 0.00 0.54 0.00 97 1009.8
20260509080054 56 212 1.0 3.0 0.00 0.54 0.00 97 1009.7
20260509074552 56 242 0.0 1.0 0.00 0.54 0.00 97 1009.6
20260509073113 56 191 0.0 2.0 0.00 0.54 0.00 97 1009.6
20260509071543 56 207 0.0 0.0 0.00 0.54 0.00 97 1009.5
20260509070045 56 247 0.0 1.0 0.00 0.54 0.00 97 1009.6
20260509064541 56 247 0.0 1.0 0.00 0.54 0.00 97 1009.7
20260509063038 56 331 0.0 1.0 0.00 0.54 0.00 97 1009.7
20260509061536 56 200 0.0 1.0 0.00 0.54 0.00 97 1010.0
20260509060046 57 248 0.0 1.0 0.00 0.54 0.00 97 1010.0
20260509054534 57 226 0.0 1.0 0.00 0.54 0.00 97 1009.8
20260509053035 57 228 0.0 0.0 0.00 0.54 0.00 97 1009.8
20260509051533 57 224 0.0 1.0 0.00 0.54 0.00 97 1009.9
20260509050029 58 214 0.0 1.0 0.00 0.54 0.00 97 1010.1
20260509044534 57 173 0.0 2.0 0.00 0.54 0.54 97 1010.0
20260509043033 57 123 0.0 1.0 0.00 0.54 0.54 97 1010.0
20260509041526 58 152 0.0 0.0 0.00 0.54 0.54 97 1009.9
20260509040026 59 152 0.0 0.0 0.00 0.54 0.54 97 1010.0
20260509034536 59 152 0.0 0.0 0.00 0.54 0.54 97 1010.0
20260509033025 59 152 0.0 0.0 0.01 0.54 0.54 97 1009.9
20260509031524 59 135 0.0 1.0 0.03 0.54 0.54 96 1010.0
20260509030024 59 113 0.0 5.0 0.05 0.54 0.54 96 1009.8
20260509024523 60 208 0.0 3.0 0.07 0.54 0.54 96 1009.7
20260509023020 60 203 0.0 3.0 0.07 0.53 0.53 96 1009.5
20260509021525 60 65 1.0 3.0 0.08 0.51 0.51 96 1009.6
20260509020020 60 133 0.0 5.0 0.15 0.49 0.49 96 1009.6
20260509014520 60 343 1.0 6.0 0.28 0.47 0.47 96 1009.7
20260509013019 60 20 0.0 2.0 0.36 0.46 0.46 95 1009.5
20260509011518 60 267 0.0 1.0 0.33 0.42 0.42 95 1009.0
20260509010025 60 50 2.0 10.0 0.24 0.33 0.33 94 1008.6
20260509004517 61 22 7.0 14.0 0.09 0.18 0.18 93 1008.6
20260509003021 62 30 5.0 12.0 0.01 0.10 0.10 93 1008.6
20260509001514 62 326 1.0 3.0 0.00 0.09 0.09 92 1007.4
20260509000013 63 122 0.0 1.0 0.00 0.09 0.09 91 1007.1